Theta_e
344 344 344 345 346 346 346 346 346 346 347 348 348 349 349 350 350 350 349 349 349 349 349 349 348 349 348 348 349 349 349 345 337 337 339 340 339 339 339 339 338 339 340 341 341 339 337 338 338 339 339 339 340 339 340 343 343 343 344 346 346 346 346 347 347 346 346 346 346 346 346 345 344 344 344 344 344 344 344 343 343 344 344 344 343
346 346 347 347 348 348 348 347 346 346 347 348 349 348 349 350 350 350 351 350 350 350 349 348 348 347 347 348 349 349 349 346 339 335 337 338 338 337 337 337 337 337 338 339 341 339 339 340 338 339 339 339 340 340 342 345 345 346 347 347 346 346 346 347 347 346 346 345 345 345 345 345 344 344 344 343 343 343 343 342 342 343 343 343 343
348 349 349 349 348 349 349 348 347 347 347 349 349 348 348 348 349 349 350 351 350 350 349 348 347 347 348 348 349 349 349 349 345 338 335 335 336 336 336 336 337 337 338 339 340 340 341 341 340 341 342 341 343 345 345 345 345 346 346 346 345 346 346 347 346 345 344 344 345 345 345 344 344 343 343 342 342 343 342 342 342 342 342 342 342
348 348 348 349 348 348 348 348 348 348 348 348 348 347 347 348 348 348 349 349 349 349 349 348 347 347 347 348 348 349 348 349 348 343 340 336 333 334 335 336 337 338 339 339 340 339 340 339 339 341 341 341 343 344 344 344 345 345 345 345 345 346 346 345 345 345 345 346 346 345 345 344 344 342 342 343 342 342 341 341 341 341 342 342 342
348 348 348 348 348 349 349 349 348 349 349 348 348 347 347 347 347 348 348 348 348 348 348 347 348 347 347 348 347 347 348 348 348 347 344 340 335 333 332 332 333 334 336 336 337 336 336 336 337 337 338 338 338 340 340 341 343 343 344 346 345 346 346 345 345 346 346 345 344 344 343 342 342 342 343 344 343 343 343 342 343 343 342 343 343
348 348 348 348 349 349 349 349 350 350 351 350 348 348 348 347 347 348 348 348 349 348 348 347 347 347 347 347 346 346 347 347 348 347 346 345 343 338 334 335 333 332 332 332 333 333 333 334 334 334 334 335 335 335 336 337 338 338 341 342 341 342 343 343 343 343 342 341 340 340 340 339 340 341 342 343 344 345 345 344 345 344 344 344 344
348 348 348 349 349 350 350 350 351 352 352 352 351 349 348 348 348 348 348 349 349 348 347 347 347 347 347 346 346 346 346 346 347 347 346 347 347 343 340 343 342 339 337 336 334 333 333 333 333 333 333 334 334 334 334 335 336 336 338 338 338 339 340 341 340 339 339 338 338 338 338 338 339 339 340 342 343 345 345 345 346 346 346 346 345
350 350 349 351 351 351 351 351 352 353 353 352 351 349 349 349 349 349 349 349 348 347 347 347 346 345 346 345 345 346 346 346 346 346 346 347 347 347 345 346 347 346 345 344 341 337 337 336 334 333 334 333 333 334 334 334 334 335 336 336 337 337 337 338 337 337 337 337 337 337 337 338 338 339 340 341 342 343 344 345 346 347 347 347 347
353 351 351 352 352 352 351 352 353 354 354 353 350 349 349 350 350 349 349 349 348 349 348 346 345 344 345 344 346 348 346 345 345 345 346 347 347 348 347 347 347 348 346 347 346 342 342 343 340 337 338 339 336 333 332 332 333 333 333 333 333 333 334 333 334 334 335 335 336 336 337 338 339 340 341 341 342 343 343 344 345 347 347 348 348
352 352 352 353 353 353 353 353 354 355 354 353 352 352 351 351 350 349 349 349 349 350 349 347 346 346 347 347 348 349 348 346 345 345 346 347 348 348 348 347 347 347 347 347 349 347 346 348 348 344 344 345 344 340 337 337 337 337 336 336 334 333 332 332 332 333 333 334 336 337 338 339 340 341 342 342 343 343 343 343 345 348 348 349 349
350 352 353 353 354 354 354 355 354 355 355 353 353 353 352 352 350 349 349 349 349 350 349 348 348 347 348 349 349 349 350 349 348 348 347 348 348 348 348 348 347 348 348 348 349 350 348 348 349 349 348 348 349 348 347 346 346 344 341 339 338 336 335 334 334 334 335 336 337 339 340 341 342 342 342 342 342 343 344 345 347 349 350 350 350
350 352 353 354 354 354 355 355 354 355 354 353 353 353 352 353 352 351 350 348 349 350 350 350 349 348 348 349 350 351 351 350 350 349 348 348 348 349 349 348 348 348 348 349 349 350 350 349 349 350 350 349 350 351 352 352 351 351 347 343 340 338 337 337 337 338 339 339 340 341 341 342 342 341 343 344 347 348 349 351 351 352 353 353 353
350 350 353 354 354 353 354 354 353 353 353 351 351 352 353 354 354 354 352 350 351 352 351 351 349 349 349 350 351 351 350 350 350 349 348 349 348 349 349 348 348 348 348 348 348 350 350 350 350 350 350 347 347 350 351 351 352 352 352 348 344 341 341 342 342 342 342 342 342 341 340 340 341 344 348 351 353 354 355 355 355 355 356 355 355
351 350 352 353 353 352 352 353 353 353 352 350 350 352 353 355 355 355 354 352 352 352 352 351 350 350 349 350 351 350 349 348 350 349 348 349 349 349 350 349 348 348 348 348 348 349 349 349 350 350 349 345 344 347 348 349 350 351 353 352 349 349 350 350 350 349 348 346 343 340 340 343 347 351 354 355 356 356 357 357 357 357 357 356 355
352 351 351 352 352 350 350 351 352 353 353 353 352 352 354 355 355 355 354 352 352 352 351 351 351 350 350 352 353 352 352 349 348 349 348 349 349 349 350 348 347 347 347 347 347 346 347 348 349 350 346 340 343 347 347 349 351 352 353 353 353 354 355 353 351 349 347 344 342 342 346 349 353 355 356 356 356 356 357 357 357 357 355 352 348
352 351 351 352 352 350 349 350 351 353 354 354 354 354 355 355 354 355 354 352 350 350 350 350 350 350 351 353 352 353 357 353 346 346 347 347 348 348 349 347 346 347 347 347 346 344 345 346 348 347 341 339 345 349 349 350 352 352 353 353 355 355 352 349 348 347 346 346 347 349 352 354 355 356 356 355 355 356 356 356 355 353 349 344 339
352 352 352 352 352 351 350 349 351 355 355 354 356 356 356 355 354 355 354 353 351 349 349 349 349 350 349 351 351 354 360 354 345 345 344 345 347 346 346 346 345 346 345 345 344 344 345 345 346 343 340 343 348 350 349 350 351 351 352 353 353 352 350 349 350 350 350 351 352 353 354 356 356 357 356 355 354 354 353 352 351 347 341 336 334
351 352 353 352 350 350 351 350 351 354 353 353 355 356 355 354 355 355 355 355 353 350 349 348 349 349 348 349 349 350 353 349 347 349 345 342 345 345 345 344 344 345 344 343 343 344 345 345 344 343 343 347 349 350 349 349 351 350 347 348 349 351 352 352 352 351 351 352 353 355 355 356 357 356 355 353 351 349 348 347 345 341 336 332 329
352 352 352 351 350 349 351 350 351 352 351 351 353 355 355 355 356 357 356 355 353 351 349 348 348 348 348 349 347 346 348 346 350 353 349 344 341 341 343 342 343 344 343 342 342 344 344 345 344 343 345 349 349 350 350 349 351 349 344 345 347 350 353 353 352 351 352 353 354 355 356 356 356 356 353 348 346 345 345 343 340 335 331 327 322
353 352 352 352 351 350 350 350 351 352 352 350 351 354 355 355 357 357 356 354 352 352 350 348 349 349 348 348 345 345 346 345 347 349 353 357 351 343 342 341 342 344 342 343 344 344 344 343 342 343 345 349 349 349 351 351 351 349 348 346 348 349 350 353 352 352 353 354 355 356 356 356 356 353 348 344 344 344 342 339 334 329 325 321 318
356 355 354 353 352 351 351 352 352 352 352 352 352 353 355 356 356 356 356 354 351 353 351 350 352 350 348 347 345 345 345 344 344 344 350 358 357 350 344 340 341 341 341 343 345 345 343 340 341 343 344 348 350 349 352 353 351 353 352 348 349 351 350 352 353 353 354 354 355 354 354 354 352 347 343 343 344 342 338 333 327 323 320 317 317
357 356 355 354 351 352 353 352 353 354 354 355 355 355 356 356 356 356 356 354 352 353 352 351 353 351 348 348 345 346 346 345 345 345 345 347 351 351 347 342 340 338 339 342 344 344 342 340 341 341 343 348 350 350 353 353 351 354 353 348 350 353 351 351 352 354 354 353 353 352 352 350 345 343 342 343 342 337 332 327 323 320 318 318 318
356 356 356 354 351 353 355 354 354 355 355 356 356 355 356 356 356 356 355 353 352 353 351 351 352 351 349 348 346 347 348 348 348 348 345 344 347 348 346 345 341 338 340 341 341 342 341 340 340 342 345 349 350 351 353 351 349 352 352 349 351 354 353 350 350 352 351 349 350 351 348 343 340 341 342 341 337 332 326 323 321 319 318 320 319
356 356 356 356 352 353 356 357 357 356 355 356 355 355 356 356 356 356 354 353 353 353 351 351 351 350 350 350 349 351 351 350 350 349 345 343 344 345 346 348 345 340 340 340 340 341 340 340 342 343 348 351 351 352 353 350 348 351 352 349 351 356 354 350 348 349 348 348 349 349 345 339 338 339 338 337 332 326 324 321 320 319 320 321 319
356 356 355 355 354 352 354 357 357 355 354 355 356 356 357 357 357 356 354 353 354 353 353 353 351 352 353 352 351 353 352 350 351 349 344 342 342 344 347 350 350 346 342 338 339 340 340 340 343 346 350 352 352 353 353 348 346 351 351 349 351 354 355 353 350 349 349 349 349 349 346 342 339 337 335 333 329 324 323 321 320 321 321 321 319
356 356 355 355 354 352 352 354 356 355 355 356 356 357 357 357 356 356 354 354 354 353 353 353 353 354 354 353 353 353 352 350 350 350 345 342 344 345 345 347 350 350 346 340 338 341 343 343 346 349 350 351 350 349 348 346 346 349 351 352 352 353 355 355 354 352 352 352 351 348 347 345 342 339 336 332 329 325 323 321 321 321 321 321 318
356 356 355 355 354 354 353 355 356 355 354 356 357 357 357 357 356 356 355 355 355 353 353 352 353 355 354 354 354 353 352 350 349 352 350 346 347 347 345 349 351 351 352 349 341 340 344 347 350 352 350 349 349 347 345 347 350 352 353 354 354 353 354 355 355 356 355 354 354 351 348 346 344 342 339 335 332 328 323 322 322 321 321 321 318
355 355 355 355 354 355 355 355 356 355 354 355 358 359 359 357 357 357 357 357 357 355 355 354 353 354 355 355 354 352 352 350 349 351 351 350 351 349 348 349 351 357 364 367 357 347 345 349 351 351 350 350 350 349 349 351 354 355 356 356 356 354 354 354 355 357 357 356 356 355 351 348 346 345 343 339 336 332 327 323 322 322 321 321 319
355 355 356 355 354 355 355 355 356 357 356 355 357 359 360 359 358 358 358 358 358 357 357 357 355 354 356 357 356 353 351 350 348 348 349 351 351 350 350 348 349 360 371 375 368 355 349 351 351 350 351 352 352 352 352 354 355 356 357 356 356 355 354 355 355 357 358 358 357 356 355 351 347 346 346 343 341 338 332 327 323 322 321 321 319
356 356 356 357 356 356 356 356 355 357 358 357 358 359 360 359 359 358 358 358 359 357 357 358 357 357 358 357 357 356 353 351 350 349 349 351 352 350 350 348 347 353 358 363 366 359 351 352 352 352 353 352 352 352 352 353 354 356 357 356 356 356 355 355 356 358 359 359 358 358 356 354 349 346 347 346 344 342 338 333 328 323 321 321 320
356 357 358 358 357 356 357 356 354 356 359 359 358 357 359 360 358 357 356 358 359 359 358 359 358 358 358 358 357 356 355 352 351 352 351 351 353 352 350 349 348 350 350 354 361 358 353 352 350 349 352 351 350 350 350 351 353 354 356 355 355 356 356 355 355 358 359 359 359 358 357 356 352 348 348 347 346 345 341 338 334 328 323 321 321
357 357 358 357 356 357 357 356 354 355 358 358 356 355 357 358 359 357 355 357 360 359 360 361 360 359 358 358 358 357 355 353 352 353 352 351 353 353 351 350 350 351 351 352 355 354 352 350 347 346 348 348 349 351 353 353 353 353 354 355 356 357 355 355 356 357 359 359 359 359 358 357 354 351 350 349 348 346 343 341 340 336 327 322 321
357 356 356 355 355 355 356 355 355 355 356 356 355 355 356 356 358 358 357 360 360 359 359 360 359 359 358 358 359 357 356 355 353 353 352 352 352 353 352 351 350 349 350 350 351 350 350 348 347 347 348 348 348 350 354 356 355 355 355 356 357 357 356 355 356 358 358 358 359 360 359 358 356 353 351 351 350 347 345 344 344 342 335 326 321
357 355 354 354 354 354 355 355 355 355 356 356 355 356 357 357 357 356 357 360 361 359 359 358 357 357 357 358 359 359 357 356 356 355 353 352 351 352 354 353 351 350 350 351 351 351 351 349 347 348 350 349 349 350 351 353 354 354 354 354 356 356 356 356 357 357 357 357 358 360 359 358 357 355 353 353 352 350 348 347 346 345 341 332 323
355 355 354 352 353 353 354 355 355 355 356 356 356 355 356 357 357 356 355 356 359 360 360 359 357 356 356 357 358 359 358 358 358 358 357 355 353 352 353 354 353 353 352 352 352 352 352 350 348 349 351 351 351 351 350 350 349 348 348 351 354 356 357 357 358 358 357 358 358 359 359 358 358 357 354 354 354 352 351 349 349 347 344 339 329
352 354 354 352 352 352 353 353 353 353 354 355 355 355 354 355 355 355 355 354 355 357 358 358 357 357 356 355 356 357 357 358 358 359 357 357 357 355 353 353 353 353 352 353 352 352 352 351 350 350 351 351 351 351 351 350 349 350 351 354 356 357 358 358 358 357 357 358 358 359 359 359 358 357 356 355 354 354 352 350 350 348 345 343 336
351 352 353 352 351 351 352 352 351 351 351 351 353 354 354 353 352 353 354 354 354 353 354 356 356 356 355 354 353 353 355 356 357 357 357 357 358 357 356 354 353 353 352 352 352 352 352 352 351 351 350 350 350 351 352 352 353 355 357 358 358 357 359 359 359 357 356 356 357 358 359 359 359 358 357 356 355 354 353 351 350 350 347 345 341
350 351 352 352 351 351 351 351 350 350 350 350 351 352 353 353 352 351 352 353 353 352 351 352 353 355 355 354 352 351 353 355 355 356 356 356 356 357 357 355 354 354 354 353 352 352 352 352 351 351 351 351 352 353 353 354 355 357 358 359 358 358 358 357 358 357 356 356 357 359 360 360 360 359 357 356 355 355 354 352 351 350 348 346 344
351 350 351 351 351 350 350 350 350 349 349 350 351 350 351 352 352 351 350 350 351 352 352 351 352 353 354 354 352 351 352 353 354 354 355 354 354 355 356 355 354 354 354 354 354 352 352 353 352 352 352 353 353 355 355 355 356 357 358 360 359 357 355 354 355 356 355 356 358 360 361 360 360 359 358 357 356 356 355 354 353 351 350 348 345
351 350 350 351 350 350 349 349 349 348 348 349 350 350 350 350 350 350 350 349 349 349 351 351 351 351 351 352 353 353 353 353 353 353 352 352 353 353 354 354 354 354 353 354 354 353 352 352 352 352 353 354 355 355 356 357 358 358 359 359 357 355 353 353 354 356 356 357 358 359 361 360 359 358 358 357 356 357 356 355 354 353 351 349 347
350 351 350 350 350 350 350 349 348 348 348 348 349 349 350 349 349 349 348 348 348 347 348 350 351 351 350 349 350 350 352 352 350 350 350 350 351 350 351 351 352 353 353 353 354 354 353 352 352 353 353 354 354 354 355 355 356 357 357 356 355 352 352 353 353 353 356 358 359 359 359 359 358 356 355 354 353 355 355 355 355 355 353 351 348
351 350 350 350 349 349 349 349 349 348 348 348 348 348 348 348 347 348 348 347 348 348 348 348 350 351 350 348 347 347 348 348 347 346 347 348 349 349 349 349 349 350 351 353 353 354 354 353 352 353 353 354 353 353 354 353 353 355 354 354 354 352 352 353 352 351 352 354 357 357 355 354 353 352 351 350 350 352 354 355 354 355 354 352 350
352 351 350 350 350 349 348 348 349 349 348 347 347 347 348 348 347 347 347 347 347 348 348 348 349 350 351 350 348 347 346 347 347 346 347 347 347 347 348 348 348 349 350 351 352 352 353 353 353 353 353 353 353 352 353 353 353 354 354 354 354 353 353 354 353 351 350 350 351 352 349 347 347 349 349 348 348 351 352 353 354 355 355 354 352
352 353 352 350 350 349 349 348 348 349 349 349 348 347 347 347 347 347 347 347 348 348 348 348 348 348 349 350 350 348 348 347 347 347 347 347 347 347 347 346 346 347 349 350 351 351 352 353 353 354 353 353 352 351 352 352 352 353 354 354 354 354 355 354 352 352 351 349 349 348 346 345 345 349 349 344 343 346 347 349 352 354 355 356 354
353 354 354 352 351 350 349 348 347 347 348 349 349 349 348 348 347 348 348 348 348 348 348 348 348 347 347 348 348 348 349 348 347 347 347 348 348 347 346 344 343 342 344 346 348 350 351 352 353 353 352 351 351 350 348 348 350 352 353 353 354 354 355 354 352 352 352 350 349 348 348 345 344 348 348 341 338 341 343 346 350 352 354 356 355
355 355 355 354 353 351 350 348 347 347 348 348 349 349 349 349 348 347 348 348 348 348 348 348 348 348 347 346 346 345 344 345 346 347 346 346 346 346 344 341 339 338 338 339 341 344 348 351 354 353 352 350 350 348 345 346 350 351 351 353 353 354 354 354 353 354 353 352 351 351 350 346 344 348 347 340 338 341 341 343 347 349 352 355 356
354 355 355 355 355 354 352 350 349 348 348 349 350 350 349 349 349 349 349 348 348 349 349 349 349 349 349 348 347 345 343 343 343 343 343 344 344 344 342 340 339 338 337 338 339 340 342 345 348 350 350 349 349 348 346 347 349 349 350 354 355 356 356 356 356 356 355 354 352 353 353 348 345 348 348 344 343 344 342 343 345 346 350 354 356
354 354 354 354 354 355 354 353 351 350 349 349 350 352 351 350 349 350 350 350 350 349 349 350 350 350 350 349 349 348 346 345 343 342 341 341 342 342 341 340 340 340 340 340 341 342 342 343 344 345 346 346 347 347 347 348 348 348 350 353 355 355 356 356 356 355 353 352 350 351 353 351 347 350 351 348 348 348 345 344 343 343 348 353 356
353 353 354 354 354 354 354 354 354 353 352 351 350 351 352 352 350 350 349 350 350 350 350 350 350 351 351 351 350 349 348 347 346 344 343 342 341 341 341 341 342 342 343 344 345 345 345 345 345 345 346 346 346 347 348 348 349 349 350 351 352 353 353 352 353 352 350 349 348 349 353 353 349 350 353 352 351 350 346 342 340 342 346 352 355
351 353 354 355 354 355 354 354 354 354 353 353 352 352 352 353 353 352 351 350 350 350 350 349 349 350 350 350 350 350 349 348 347 346 345 344 343 343 343 343 344 345 345 346 347 348 348 349 349 349 350 349 349 349 349 349 350 351 352 353 354 353 351 350 351 350 349 349 346 348 352 353 349 349 353 353 351 349 345 340 340 342 346 351 354
348 351 353 355 355 355 355 355 355 355 355 355 355 355 354 354 355 354 354 353 352 352 352 351 351 351 351 350 350 349 349 348 348 347 346 345 345 344 345 345 346 347 347 347 349 350 350 351 352 352 353 353 352 353 352 352 353 354 355 357 357 355 352 350 350 349 348 348 346 346 349 350 347 347 349 349 348 347 344 342 342 344 346 350 352
Wind_Speed
18 17 16 16 15 15 14 14 14 14 13 11 10 10 9 8 7 6 5 4 4 4 6 8 9 9 10 13 10 7 4 2 3 6 5 5 5 6 5 5 5 5 5 4 3 3 2 2 3 3 4 4 4 4 4 3 3 3 3 3 4 4 5 6 6 7 7 7 8 8 9 9 10 9 9 8 8 7 7 8 7 7 7 7 7
16 15 14 13 13 13 13 13 13 12 11 9 7 7 7 7 6 5 4 4 3 3 5 7 10 11 12 13 11 7 5 2 3 5 5 5 5 5 5 5 5 5 5 4 4 4 3 3 3 4 5 5 5 5 5 4 4 5 4 5 5 6 6 7 8 8 9 9 9 9 9 10 10 10 9 9 8 8 8 8 8 8 8 8 8
14 13 13 12 12 13 12 12 12 12 11 8 7 5 5 5 5 5 4 4 3 4 5 7 8 11 13 13 10 9 7 4 3 5 4 4 3 4 5 5 5 4 4 4 4 4 4 4 5 5 6 6 6 6 6 6 6 6 6 6 7 7 7 9 9 9 9 9 9 10 10 11 10 9 9 9 9 9 9 9 9 9 9 9 9
12 12 12 12 13 13 12 12 12 11 10 8 7 5 5 5 5 5 5 5 5 6 7 9 10 11 13 12 10 9 7 5 4 5 4 3 3 2 3 4 4 4 4 4 4 4 4 5 5 6 6 6 6 7 7 7 7 7 7 8 8 8 8 9 10 10 10 10 11 11 10 11 10 9 9 9 9 9 10 10 9 9 10 10 10
11 12 12 12 13 13 12 11 11 10 9 8 6 6 6 6 7 7 6 6 5 7 9 11 13 12 13 12 10 9 8 6 5 4 5 3 2 2 1 2 2 3 3 4 4 5 5 5 5 6 6 6 7 7 7 8 8 8 8 9 9 9 9 9 10 11 11 11 11 11 10 10 9 9 9 9 9 9 10 10 10 10 10 11 11
10 10 12 12 12 12 11 11 10 9 8 8 7 6 6 6 7 7 6 5 5 7 9 12 14 13 14 13 10 10 9 7 5 4 4 3 3 2 2 2 1 1 2 3 3 4 4 5 5 6 6 6 7 7 7 8 8 8 8 8 9 9 9 10 10 10 10 10 10 10 9 9 9 9 9 9 9 10 10 10 10 11 11 12 12
8 9 10 10 11 11 10 10 9 8 7 7 6 6 6 7 7 7 6 5 5 7 7 10 14 14 14 13 10 11 11 8 7 6 4 3 2 2 2 1 1 1 1 1 2 3 3 4 5 5 6 6 6 7 7 7 7 7 7 8 8 8 8 9 9 9 9 9 9 8 8 8 9 9 10 10 10 11 11 11 12 12 12 13 13
7 8 9 9 9 9 9 9 8 8 7 6 6 6 7 7 7 7 5 5 5 5 5 7 11 13 13 12 10 10 11 11 9 8 6 5 2 2 2 2 2 2 2 1 1 1 2 2 3 3 4 5 5 5 6 6 6 6 6 7 7 8 8 8 9 8 8 8 8 8 8 9 9 10 10 11 12 12 13 13 13 14 14 14 14
8 7 7 8 8 8 9 9 9 8 7 6 6 6 6 6 7 6 6 6 5 5 6 7 9 10 10 9 9 6 8 11 10 9 9 7 5 5 4 4 4 4 4 4 2 2 2 1 1 1 1 2 2 3 3 3 4 5 5 6 6 7 7 8 8 8 8 8 8 9 9 10 10 11 12 12 13 14 14 15 15 15 15 16 16
9 7 6 6 7 9 9 9 9 8 7 7 7 6 5 5 6 7 6 6 4 3 6 7 9 9 7 8 9 6 6 8 9 9 10 9 7 7 6 5 5 5 6 6 5 4 3 2 2 2 1 2 2 2 2 3 3 4 4 5 6 6 7 7 8 8 8 8 9 9 10 11 12 13 13 14 15 16 17 17 17 17 16 17 17
10 9 8 7 7 9 9 9 9 8 8 9 8 7 6 5 6 6 6 6 4 3 5 6 8 10 8 7 8 7 7 7 8 9 11 10 9 9 9 7 6 6 6 7 6 6 5 4 3 3 2 2 3 4 4 4 5 5 5 5 6 6 7 8 8 8 9 9 10 10 11 12 13 15 16 16 17 17 16 16 15 15 14 15 16
11 12 11 10 10 11 11 10 11 10 10 10 10 8 7 6 6 5 6 6 4 4 4 4 7 10 10 8 5 6 7 7 9 11 11 11 11 12 11 10 10 8 7 7 7 7 6 5 4 3 3 3 4 5 6 6 6 6 6 6 6 7 7 8 9 9 10 11 11 12 13 14 15 16 16 15 15 14 13 13 13 12 12 12 12
13 13 13 12 11 12 12 12 12 12 11 11 10 9 7 6 5 5 5 6 5 4 4 4 6 8 8 8 6 6 7 8 10 12 13 13 13 15 14 13 13 12 10 9 9 8 7 6 5 4 4 4 4 5 6 7 7 8 8 7 7 7 8 9 10 11 12 12 13 14 14 14 14 14 13 12 12 12 12 12 12 12 12 11 11
14 14 15 13 12 12 13 13 13 11 10 11 11 10 9 7 6 5 5 6 6 4 5 4 4 5 4 3 5 6 8 10 11 12 13 15 16 17 18 17 16 14 12 11 10 10 9 8 6 6 5 5 5 5 6 7 8 9 9 9 8 9 10 11 12 12 13 13 13 13 12 11 11 11 11 11 12 12 12 13 13 13 12 12 11
14 15 15 14 12 13 13 14 13 11 11 11 12 11 10 9 7 6 6 6 5 4 6 4 1 2 2 1 2 3 5 9 13 14 14 15 16 18 20 20 18 15 14 13 12 11 9 8 8 7 6 5 4 5 6 7 8 10 11 10 10 10 11 11 12 12 12 11 10 9 9 8 9 10 11 12 13 13 13 13 13 13 13 12 12
14 14 14 14 13 13 14 14 13 11 11 11 13 12 10 9 7 7 6 5 4 4 6 3 2 2 2 1 0 1 2 6 11 14 15 15 17 17 19 20 18 15 15 14 12 10 9 8 8 7 6 4 3 5 7 8 10 11 11 10 10 10 10 10 9 9 8 7 7 7 7 7 9 11 13 13 13 12 12 12 12 12 13 13 13
14 14 13 13 13 13 14 14 14 12 11 12 12 10 9 8 6 6 6 5 4 3 4 3 3 4 2 1 1 1 2 3 5 9 11 15 18 18 17 20 19 16 15 14 11 10 9 8 7 6 4 2 3 6 8 10 11 11 10 9 9 9 8 7 6 6 6 5 6 6 7 9 11 13 15 14 13 12 12 12 12 13 14 14 15
14 14 13 12 13 13 13 14 13 12 11 11 11 10 9 7 5 5 5 5 5 4 4 3 3 4 4 5 4 4 5 3 1 3 6 9 14 17 17 18 19 17 15 14 12 11 11 9 7 5 2 2 4 6 8 10 10 10 10 9 9 8 7 7 6 5 5 5 6 8 9 12 13 15 16 15 13 11 11 11 12 14 16 16 16
13 13 12 11 12 13 13 13 13 12 10 11 11 10 9 7 5 4 4 4 4 4 3 2 2 3 4 6 4 3 5 3 1 0 1 3 6 12 16 17 18 18 15 14 14 14 13 12 10 6 3 2 4 5 8 9 7 8 10 9 10 10 8 7 6 5 6 6 8 10 12 14 15 16 16 14 12 10 10 11 14 15 17 18 18
12 12 12 12 12 12 13 13 13 12 11 10 11 10 8 7 5 4 3 2 2 2 1 1 3 3 4 5 3 3 6 5 2 2 2 1 3 5 10 14 18 19 16 14 14 15 15 13 11 8 5 3 4 5 7 6 5 8 11 9 10 12 10 8 7 6 7 8 10 12 13 15 16 16 15 12 10 10 11 13 15 16 17 18 19
11 11 12 12 12 13 13 14 13 12 11 10 10 9 8 7 6 5 4 4 2 1 1 0 3 4 4 5 4 5 7 5 5 6 3 2 2 3 4 7 13 17 17 15 14 15 15 13 12 10 7 5 5 6 6 5 5 8 10 9 10 12 11 9 8 8 9 10 11 13 14 15 16 15 12 10 9 11 12 14 15 16 17 19 20
12 10 11 11 12 13 13 14 13 12 10 10 10 9 8 7 6 6 6 6 4 2 1 0 2 3 4 5 5 7 7 4 7 9 4 2 1 3 4 3 8 13 16 16 16 16 16 14 12 12 9 7 7 7 6 5 6 8 9 9 10 12 12 10 9 9 9 10 12 13 15 15 14 12 11 10 11 12 14 14 15 16 17 19 21
13 10 10 10 11 12 13 12 11 10 10 10 10 10 8 7 7 7 7 6 5 4 4 3 2 3 3 5 6 8 8 7 12 12 6 3 2 3 5 3 7 11 13 16 17 16 16 15 13 12 10 9 9 8 6 6 7 7 8 9 10 11 12 11 9 9 10 11 12 13 14 14 13 11 10 11 12 13 13 13 14 15 17 20 21
13 11 11 11 11 12 12 11 10 10 10 10 10 9 8 9 8 9 8 7 6 6 6 5 4 4 4 5 6 9 9 10 13 13 9 8 4 2 4 3 3 7 8 12 14 15 15 15 13 11 10 9 8 7 6 7 7 6 6 8 10 10 12 12 10 9 10 11 12 12 13 13 12 12 11 11 12 13 12 12 13 15 17 19 21
15 14 12 11 11 11 12 11 10 10 9 9 9 9 10 10 10 10 10 8 8 7 8 7 6 5 6 6 7 8 9 10 13 12 8 7 4 2 2 2 1 2 4 5 7 8 11 12 12 11 10 9 7 6 7 8 7 6 6 8 10 10 10 11 10 9 10 12 12 12 12 12 12 12 12 12 12 12 11 11 12 14 17 19 20
17 15 12 11 11 11 11 10 10 10 9 9 9 9 10 10 10 10 10 10 10 10 10 9 8 7 7 7 8 8 9 9 11 12 7 3 2 2 1 2 3 4 2 1 1 3 7 10 12 11 10 8 6 7 8 8 7 6 7 8 10 10 10 11 11 11 10 11 12 12 12 12 12 12 12 12 12 12 11 11 12 14 17 18 19
17 14 12 12 12 11 10 9 9 9 9 9 9 9 9 10 10 11 10 10 11 11 11 11 10 9 7 7 8 9 9 8 8 9 8 5 4 2 1 1 2 5 5 3 2 1 5 10 12 10 8 6 6 6 6 6 6 6 7 9 10 11 11 10 11 11 11 11 11 12 12 11 11 11 12 12 12 12 11 11 12 14 16 18 19
16 14 13 13 13 12 11 10 9 10 10 10 9 9 9 10 10 11 11 9 9 9 9 10 10 9 8 8 9 9 9 8 7 6 6 7 6 5 3 2 1 2 5 5 4 3 2 7 9 9 7 6 6 5 6 6 6 7 8 10 11 11 11 11 11 11 12 11 11 11 12 12 11 11 11 11 11 11 11 12 13 14 16 18 19
17 15 14 14 13 13 13 12 11 11 11 11 10 10 11 11 11 12 12 10 10 10 10 10 10 10 10 9 9 10 9 7 7 6 5 5 6 5 4 3 2 1 0 2 4 2 1 2 3 5 6 6 7 7 8 9 9 10 11 11 11 11 11 11 11 12 12 12 11 11 11 12 12 11 11 11 11 11 11 12 13 14 16 18 19
19 17 16 16 15 15 15 14 13 12 12 12 12 12 12 12 12 13 13 11 11 11 11 11 11 11 11 11 10 10 10 8 6 6 5 6 7 8 6 4 2 1 2 1 3 3 2 2 2 2 3 5 6 9 10 11 12 12 12 12 11 11 12 12 13 13 13 13 12 11 11 11 11 11 11 11 11 11 11 11 13 14 15 17 19
20 19 18 18 17 18 18 16 14 14 14 12 13 14 14 13 12 13 13 13 12 11 11 11 12 12 12 12 11 10 10 8 7 7 7 6 6 7 8 7 4 2 2 2 1 2 2 4 6 6 6 7 8 8 9 8 10 11 11 11 11 11 12 14 14 14 14 14 13 12 11 11 11 10 10 11 12 12 11 11 13 14 15 17 19
20 20 19 18 17 18 20 18 16 16 15 14 13 13 15 14 12 12 12 12 12 12 11 11 11 11 12 11 11 10 9 9 9 9 9 7 5 6 8 8 5 3 5 4 4 7 8 8 9 9 9 10 10 8 8 8 8 9 10 11 11 12 13 15 15 16 16 16 15 14 13 12 11 10 10 10 11 12 11 11 13 14 15 17 18
20 20 19 19 18 17 20 19 17 16 16 15 13 13 14 15 14 13 12 11 12 13 13 13 13 12 12 11 11 10 10 10 11 11 11 10 8 7 8 8 7 7 7 8 8 11 14 12 10 11 11 11 11 10 9 9 9 8 9 11 12 14 15 16 16 16 16 16 16 15 14 13 12 11 11 10 11 11 11 12 14 15 15 16 17
21 21 21 21 20 19 19 20 18 17 16 16 15 14 15 16 15 14 14 14 13 13 13 14 13 12 12 13 12 10 10 11 12 13 13 12 10 10 10 10 11 11 11 11 10 11 15 16 14 14 14 13 13 13 12 13 13 13 12 13 14 15 16 16 17 17 16 15 15 15 15 14 13 13 12 11 12 12 12 12 13 14 15 15 16
23 22 22 22 22 22 21 21 20 19 18 18 17 16 17 18 17 16 15 15 15 15 15 14 13 12 13 14 14 12 10 11 13 13 13 13 12 12 12 12 13 13 13 14 14 13 15 18 18 17 17 16 15 15 15 17 18 17 16 15 14 14 14 15 16 17 16 15 15 15 15 15 14 14 13 13 14 14 13 12 13 13 14 15 16
24 24 23 22 22 24 24 24 22 21 21 20 19 19 19 19 19 19 17 17 17 17 17 16 14 13 14 15 15 15 13 13 13 14 13 12 12 12 13 13 13 13 13 14 16 16 16 17 17 17 16 16 17 17 18 19 19 17 16 16 15 14 15 16 17 16 16 16 16 15 15 15 15 15 15 15 15 15 15 14 13 13 13 14 15
25 24 24 24 23 24 25 25 23 21 21 22 22 22 21 20 20 19 19 18 18 18 19 19 17 17 16 16 16 15 15 15 15 15 15 14 14 14 15 15 15 15 14 14 15 16 17 18 17 16 16 16 17 18 17 18 18 16 15 14 14 14 15 17 18 19 18 18 17 16 17 16 16 16 15 16 17 17 17 16 15 14 13 13 14
25 24 25 26 25 25 25 25 24 22 20 20 21 22 23 23 22 21 20 20 20 19 19 19 19 19 19 19 18 16 15 16 16 16 16 16 17 17 17 17 17 17 17 16 15 15 16 17 17 17 17 17 17 18 17 16 17 18 17 16 15 15 16 17 19 20 19 18 16 16 17 18 17 17 17 17 18 19 19 18 17 16 15 14 13
27 26 25 26 27 27 26 26 25 24 23 22 22 22 22 24 24 23 22 22 21 21 20 20 20 20 20 20 19 18 16 16 17 17 17 18 18 19 19 19 19 19 18 18 18 17 17 17 17 18 19 18 18 19 19 17 18 19 18 17 17 18 19 20 20 19 18 17 16 16 17 19 19 19 19 19 20 20 20 20 20 18 16 15 14
28 28 27 28 28 29 29 29 28 27 26 25 25 24 24 25 25 26 25 24 23 23 23 22 21 22 22 21 20 20 18 18 18 18 19 19 20 21 21 21 21 21 20 20 20 20 20 19 20 20 20 20 20 20 20 19 19 19 18 15 18 22 23 22 22 20 19 18 16 15 16 18 18 19 20 21 21 21 21 21 21 20 19 17 15
24 27 28 28 29 30 31 31 30 30 29 28 28 27 27 27 27 28 27 27 26 25 25 25 24 24 23 23 23 23 22 21 21 20 20 21 22 23 23 23 23 23 23 23 23 23 22 21 22 22 21 21 22 22 22 21 21 21 19 17 19 23 24 22 21 18 16 16 15 14 15 16 17 18 19 20 21 21 22 22 22 21 20 18 16
14 20 25 27 27 29 31 32 33 32 32 31 30 29 29 28 28 29 29 29 29 28 27 26 27 27 26 26 25 25 24 24 23 21 21 21 23 25 25 25 26 26 26 25 25 25 24 23 24 24 21 22 25 25 24 25 24 23 22 21 22 24 23 21 18 14 12 13 13 14 14 15 17 18 19 20 21 21 22 22 22 22 21 19 17
11 13 19 25 27 27 28 30 32 33 34 33 32 31 31 30 30 31 31 31 31 30 30 29 29 30 29 29 28 27 26 25 24 23 23 22 23 24 26 27 27 29 29 28 27 27 26 25 25 25 22 23 27 27 26 27 26 25 24 23 22 23 21 16 13 12 12 11 11 14 15 16 17 19 20 21 23 22 23 24 23 22 21 20 19
14 13 15 19 24 27 27 27 29 32 34 35 34 34 33 32 32 32 33 33 33 32 32 32 32 32 31 31 30 29 29 28 27 26 26 26 25 25 26 26 26 28 30 31 31 30 28 27 27 27 26 26 28 29 28 28 27 26 25 23 22 22 20 16 13 14 15 13 12 15 18 19 18 19 21 23 24 24 24 24 23 23 23 21 19
16 17 16 16 18 22 24 24 24 27 30 33 35 36 35 34 34 34 35 35 34 34 34 34 34 34 34 34 33 32 32 31 30 29 28 28 28 27 27 27 27 28 29 30 31 32 33 31 29 29 30 29 29 30 30 29 27 25 25 24 23 22 20 19 20 21 20 17 14 15 19 22 21 20 22 24 24 24 24 24 24 23 23 22 20
13 15 17 18 18 18 20 21 20 21 22 25 29 33 36 37 36 36 36 36 35 35 35 35 35 35 35 35 35 35 34 33 33 32 32 31 31 31 31 32 33 33 32 32 31 31 33 35 34 34 35 34 33 34 34 31 29 27 27 27 26 24 23 23 24 24 22 19 17 16 18 24 23 21 24 25 23 23 23 23 24 23 22 21 20
9 11 14 16 17 18 19 19 19 20 20 20 21 24 29 34 36 37 37 37 37 36 36 36 36 36 35 35 35 35 35 35 35 34 34 34 34 34 35 35 36 36 35 35 33 32 32 34 36 38 39 39 38 38 37 35 32 31 31 28 26 25 24 23 23 23 22 22 20 16 16 24 25 22 25 26 23 22 22 22 23 23 21 19 19
6 8 10 13 15 16 18 19 20 22 23 22 21 19 20 25 32 36 38 38 38 37 37 37 37 37 37 36 36 36 36 36 35 35 35 35 35 35 35 36 36 37 37 36 34 34 34 34 35 36 37 38 38 39 39 37 35 34 31 27 25 25 24 22 22 25 26 26 24 19 18 23 26 24 25 26 24 23 23 23 24 23 20 18 18
6 6 7 9 11 13 15 17 20 22 24 25 24 21 19 20 24 31 35 38 40 40 40 39 38 37 36 37 37 37 38 38 37 36 35 35 35 35 35 35 35 36 37 36 35 35 36 36 36 36 35 36 36 37 38 37 35 34 31 28 28 27 23 19 19 24 27 26 25 21 18 21 26 26 25 24 23 23 23 24 24 23 21 19 19
7 7 7 7 8 10 12 14 16 19 22 23 21 21 21 21 21 25 29 33 36 38 39 39 39 38 38 38 38 37 38 39 39 38 37 36 36 36 35 35 34 34 35 35 34 34 35 35 34 35 35 35 35 35 35 34 32 32 31 31 30 28 22 19 21 24 25 27 28 23 19 22 26 25 22 20 19 21 23 22 21 20 20 19 20
9 8 7 7 8 9 10 11 13 15 17 18 17 17 19 19 20 22 24 27 29 31 32 33 33 34 36 37 38 39 40 40 40 40 39 38 37 37 35 33 31 32 34 34 33 33 33 33 33 34 34 34 35 34 34 33 31 30 32 32 31 29 26 25 25 20 15 20 26 21 18 21 23 21 19 14 11 13 17 18 17 18 19 20 21
Wind_Direction
147 146 144 143 142 143 143 143 142 140 139 137 137 141 148 153 160 165 168 178 188 208 214 209 208 213 204 191 198 207 195 160 161 169 165 166 165 164 171 178 184 187 188 187 188 195 200 208 218 227 230 234 237 239 238 241 256 266 272 273 278 283 285 289 291 293 292 290 291 294 296 298 300 299 295 292 292 291 292 293 289 287 286 287 288
151 150 153 154 151 150 148 146 144 141 138 135 136 144 153 158 165 167 169 172 173 210 217 205 200 201 199 195 200 204 192 162 143 157 162 165 168 171 176 187 198 196 192 190 195 209 221 232 241 245 246 248 247 246 248 259 264 261 267 269 272 280 286 287 287 289 286 284 286 291 293 294 297 295 292 291 288 287 288 289 287 283 281 280 280
161 160 165 166 161 156 153 150 147 146 143 144 147 153 163 169 179 184 193 199 203 223 209 191 186 186 191 196 199 198 198 196 157 148 146 152 166 179 183 187 197 199 198 202 212 226 235 247 254 251 252 255 252 251 255 263 265 261 265 266 270 276 280 280 281 284 285 285 285 288 290 291 294 290 287 290 287 286 285 284 285 284 281 280 277
160 160 160 160 159 156 157 155 152 151 149 152 157 164 176 186 199 206 213 219 217 210 195 181 176 181 190 197 198 198 201 197 178 153 137 132 145 171 192 192 197 205 213 223 231 240 245 253 262 260 259 259 255 254 252 253 257 261 266 268 272 273 276 281 285 286 286 288 287 286 288 290 292 288 286 287 287 286 285 285 286 285 285 282 278
150 153 153 152 156 155 156 155 153 155 155 158 163 169 181 193 203 211 214 215 210 194 191 185 181 188 196 198 200 201 200 196 191 168 138 117 117 123 133 180 199 210 220 230 237 244 249 255 262 263 264 263 259 258 258 257 257 260 265 270 272 274 278 281 284 286 286 286 288 288 290 293 294 293 291 289 289 290 290 292 290 287 286 283 280
149 153 151 151 157 158 158 155 154 160 163 164 166 172 182 189 198 207 210 214 206 190 194 193 188 195 201 202 209 209 203 201 206 195 155 117 105 111 102 103 123 165 206 222 235 244 251 258 262 264 264 263 262 262 263 263 262 262 265 269 272 274 277 278 281 284 287 290 292 295 298 301 303 304 303 297 295 293 292 293 291 288 285 282 282
153 154 153 154 158 161 161 156 159 167 169 169 172 184 186 184 194 204 207 210 202 189 193 196 195 202 205 209 217 216 214 213 217 220 197 157 128 131 134 107 87 123 162 196 234 246 252 260 263 265 264 264 264 265 266 265 265 266 268 272 276 280 280 281 285 287 290 295 298 302 305 308 310 311 311 308 303 299 296 294 291 289 287 285 285
172 162 159 158 156 157 158 159 166 172 176 181 178 186 186 183 193 201 203 202 198 196 199 196 195 201 205 208 212 215 223 225 227 232 220 205 210 206 198 224 249 248 243 233 239 232 236 254 257 260 266 267 267 267 268 269 271 274 278 281 284 287 288 288 289 292 295 298 300 304 307 309 310 310 311 310 307 304 301 297 293 291 290 288 286
190 180 163 156 149 150 157 164 173 175 186 196 181 179 187 193 201 202 201 199 200 212 215 194 179 187 194 196 199 205 218 221 225 232 226 221 238 251 240 230 236 249 247 241 240 230 218 229 243 251 270 286 287 283 281 283 286 290 293 296 297 297 297 297 298 299 299 300 302 304 306 307 308 308 308 307 305 304 302 299 295 292 291 289 286
190 187 173 163 152 154 163 171 179 182 194 204 193 185 193 208 211 201 195 199 202 211 216 201 181 180 183 186 195 202 211 216 219 224 228 232 245 254 253 243 234 235 237 239 245 249 244 245 259 265 292 326 333 335 327 326 326 324 323 319 318 314 310 309 308 306 305 304 304 304 306 307 308 308 307 307 306 305 303 301 297 294 292 289 287
186 182 184 189 181 178 181 185 192 194 196 202 199 192 189 194 200 198 199 203 202 183 185 200 200 195 191 185 193 208 215 214 215 226 236 241 250 255 255 253 242 230 235 240 244 253 253 250 261 274 295 319 325 332 333 334 336 335 335 333 331 326 322 318 315 313 311 310 310 310 312 312 311 310 311 311 311 311 310 308 305 302 298 293 292
188 186 191 193 194 195 197 198 201 201 200 203 201 193 187 182 185 196 205 203 197 175 162 178 203 201 201 199 203 225 225 219 223 231 238 243 253 255 253 258 254 244 243 245 246 252 256 252 258 275 292 306 313 320 323 324 325 325 328 330 330 326 324 322 318 317 316 315 315 314 314 313 314 315 318 320 321 322 322 321 319 314 310 305 302
190 194 198 197 197 199 201 202 202 202 204 207 205 198 192 190 194 202 211 209 196 178 168 155 165 180 198 211 225 239 235 238 242 238 236 243 253 254 254 260 261 255 251 252 251 250 254 255 257 272 288 302 305 312 319 318 316 316 318 322 325 325 322 320 319 316 315 315 314 313 314 316 320 325 329 331 331 330 329 326 324 321 320 317 314
194 198 201 202 202 200 203 203 201 205 207 205 204 201 199 200 208 221 228 221 210 193 184 172 154 164 176 228 255 255 248 250 252 248 244 246 248 250 254 258 260 259 255 255 255 251 253 256 260 274 289 298 303 315 321 318 317 316 315 316 319 322 322 320 319 317 316 317 316 317 319 324 331 336 337 335 331 328 325 324 324 324 324 322 321
198 201 202 203 204 202 203 201 200 206 207 199 196 196 201 205 212 233 236 222 216 199 187 190 273 206 154 347 285 276 278 263 253 248 245 246 248 250 253 254 256 257 255 256 257 253 251 253 261 280 293 299 313 330 327 320 324 323 317 314 314 319 323 322 322 324 325 326 326 327 330 336 340 340 337 332 327 324 323 324 325 325 325 324 324
200 203 203 204 205 203 200 199 200 204 205 197 192 191 197 204 213 232 238 233 226 200 196 225 286 220 180 346 340 55 307 269 260 252 245 246 248 247 249 249 250 252 250 250 253 254 252 253 262 281 291 298 334 340 329 324 326 326 323 319 319 324 328 330 334 339 343 344 342 340 340 341 340 338 337 335 332 328 326 326 326 326 327 326 327
200 201 202 203 203 202 197 198 201 201 200 196 193 194 198 206 218 231 241 258 268 241 229 251 247 214 213 327 9 4 271 272 281 266 252 246 242 241 243 243 244 244 244 244 246 251 251 249 257 276 286 300 346 338 327 326 327 328 332 336 338 341 344 350 354 356 355 355 352 348 344 340 338 338 339 339 337 333 331 330 329 329 328 328 330
203 202 203 202 199 198 195 197 201 200 199 197 197 200 205 209 217 239 262 284 301 286 248 247 252 241 265 301 292 266 273 284 298 277 269 256 243 237 237 239 239 237 236 240 245 250 252 248 247 261 292 341 350 336 324 323 327 337 349 358 1 360 0 4 4 359 1 1 354 348 342 339 337 339 341 340 339 337 338 337 332 330 328 329 335
205 205 205 202 199 197 195 197 201 206 206 201 198 201 207 208 216 258 286 298 317 306 252 247 291 270 279 305 299 278 307 305 234 309 312 289 263 239 235 238 238 234 232 235 243 250 251 245 239 246 283 337 342 328 319 317 322 345 359 8 13 9 5 5 2 359 359 354 349 343 338 337 337 340 342 342 342 345 345 338 331 329 330 333 339
203 205 205 202 201 197 194 194 196 202 204 199 197 204 212 212 224 261 279 286 313 318 267 281 341 317 293 312 320 339 347 346 358 45 102 68 329 263 238 234 232 233 234 237 243 245 245 243 240 247 268 290 303 304 308 311 320 344 352 359 9 8 4 360 355 354 352 346 343 339 336 336 337 341 344 346 348 350 344 336 332 332 334 338 342
206 208 207 203 200 195 192 192 192 193 194 195 198 206 216 222 235 250 256 264 268 323 14 30 351 330 320 334 335 339 354 16 21 21 66 92 328 290 262 231 225 229 231 234 240 240 242 249 247 248 258 265 278 282 283 304 338 347 346 351 1 2 2 357 349 349 346 342 340 338 337 337 339 344 347 349 349 346 342 337 335 336 337 340 342
209 210 210 205 199 194 193 193 191 191 192 195 197 202 215 228 239 249 258 262 256 275 288 261 343 333 336 342 337 342 353 9 0 356 16 78 28 312 319 267 224 232 233 231 236 238 240 250 250 243 244 250 263 269 269 295 332 341 339 349 0 360 2 359 351 352 348 343 343 341 340 340 343 347 349 348 345 342 341 339 338 337 338 340 340
211 211 210 207 202 196 197 196 194 198 200 200 200 204 218 225 232 249 256 250 245 262 256 240 287 306 325 335 334 342 347 341 338 334 318 311 315 306 327 307 229 244 245 231 232 236 237 242 242 231 230 241 252 258 276 304 321 329 329 344 360 1 4 4 357 0 355 348 348 346 346 346 347 349 347 344 342 340 340 339 337 336 336 337 337
212 214 212 209 209 205 204 204 205 209 208 206 206 210 220 222 231 249 252 241 243 254 248 242 259 285 312 328 334 343 350 350 345 336 313 300 292 274 325 348 226 247 247 227 230 238 237 233 226 219 222 233 242 254 286 310 313 317 322 339 354 357 3 5 3 7 5 359 357 352 351 350 349 347 344 342 340 339 339 337 335 333 334 335 335
211 216 215 208 209 212 211 211 213 215 210 210 212 213 218 224 237 248 242 237 246 248 242 240 251 278 304 316 321 332 343 351 355 353 327 294 277 247 307 10 5 279 243 221 226 230 228 221 214 214 218 224 241 268 292 307 306 310 315 327 343 350 357 360 359 3 8 7 5 358 354 352 349 344 342 341 341 341 339 335 332 332 334 335 335
210 215 215 209 209 213 215 214 213 215 213 212 215 216 222 230 240 243 239 241 249 248 244 241 247 269 294 306 309 321 334 342 356 7 4 315 264 204 243 336 4 1 337 255 236 208 213 212 210 212 212 224 265 294 297 303 307 310 306 310 329 342 347 349 350 353 358 4 7 4 358 353 349 343 339 341 344 343 340 336 333 333 336 337 337
209 214 216 212 208 208 214 217 213 216 217 212 214 223 235 240 236 234 242 250 249 248 247 245 250 263 281 297 301 311 323 326 342 7 21 21 31 67 46 340 356 353 351 334 337 324 222 213 209 207 209 242 290 303 297 298 304 306 302 302 317 334 340 336 337 342 344 350 358 2 1 355 350 345 340 340 344 345 341 337 335 337 339 338 338
206 212 216 212 206 204 211 218 217 219 221 216 219 232 238 235 230 231 240 249 248 248 248 250 253 258 273 291 294 298 308 313 317 342 3 359 3 24 34 59 93 331 344 343 346 10 241 225 219 213 220 261 290 289 276 278 286 291 296 299 305 323 335 329 324 328 332 336 342 350 357 356 351 347 343 341 343 345 345 341 339 341 342 340 340
208 211 214 213 209 208 214 218 216 218 222 222 226 233 232 227 225 231 239 244 247 248 249 253 253 256 270 281 284 286 294 304 304 306 327 330 329 338 349 28 69 149 46 338 311 329 342 264 238 230 242 271 293 289 276 275 281 283 287 293 298 315 328 322 314 313 316 323 328 334 345 353 352 349 347 345 342 345 347 347 346 346 344 342 342
209 212 213 214 214 217 219 220 218 217 221 226 229 230 229 228 229 233 239 241 244 245 246 251 252 255 264 268 274 284 289 290 293 293 308 315 304 305 310 317 330 239 176 210 286 300 332 8 12 327 291 296 308 308 294 282 281 280 281 286 293 311 323 317 309 305 304 311 315 319 331 343 348 349 351 350 345 344 348 351 352 350 346 343 342
208 209 213 215 218 220 219 220 220 219 222 229 231 228 227 230 234 236 236 235 238 242 243 249 254 255 258 262 271 287 292 285 288 296 304 312 299 293 300 294 279 280 267 228 241 271 289 325 327 324 325 318 318 326 320 297 283 279 280 285 291 305 317 316 310 303 301 304 306 308 315 329 338 343 349 352 348 345 346 350 354 354 349 344 342
206 207 212 214 214 215 215 217 218 218 222 228 229 226 225 228 233 234 231 230 237 241 243 251 257 254 254 261 269 282 289 284 285 291 296 305 299 283 290 285 259 269 291 281 268 273 284 300 304 308 321 321 317 329 339 328 309 290 282 287 293 299 312 319 315 309 305 303 302 301 304 315 326 331 339 348 347 346 345 347 353 354 351 346 342
208 207 211 214 213 212 212 214 215 217 221 225 226 226 225 228 232 233 231 232 239 240 242 250 256 253 249 256 268 274 276 279 281 283 285 291 292 280 276 271 258 264 278 277 277 285 293 297 298 306 317 321 319 320 324 330 332 317 297 295 297 297 305 314 312 308 307 304 301 299 299 304 312 318 327 336 339 339 341 344 347 350 350 346 342
216 213 215 217 217 216 215 214 215 218 223 226 228 228 230 232 235 236 234 233 238 243 248 253 255 254 249 253 267 273 271 275 280 281 282 281 280 275 270 268 269 270 271 271 271 277 287 293 300 307 312 317 319 317 317 320 324 321 312 308 304 299 301 306 305 303 304 304 301 297 296 299 303 308 316 324 327 327 331 337 341 344 346 344 342
220 221 222 221 220 220 220 218 218 222 224 225 228 231 234 237 239 241 239 234 236 243 251 254 254 254 252 253 260 266 269 275 277 281 283 279 275 273 272 273 278 281 280 277 270 267 279 291 299 306 308 310 313 317 320 320 319 316 312 312 311 307 305 306 304 301 301 303 301 295 294 296 300 303 308 314 317 317 319 325 331 335 339 340 340
222 223 224 224 224 224 223 222 223 226 226 226 228 233 237 240 241 245 245 241 239 241 246 251 252 254 255 255 257 258 263 269 273 279 283 281 278 277 277 277 281 287 291 287 279 272 274 283 293 301 305 305 307 311 316 319 320 317 314 314 312 307 304 304 304 304 302 302 298 291 290 294 296 298 302 308 310 310 310 314 318 324 330 334 337
224 224 225 226 227 226 224 224 225 225 226 226 227 231 237 240 242 245 247 248 248 247 247 248 251 256 258 261 264 262 261 264 268 274 279 280 280 280 281 281 283 286 290 292 289 281 274 275 283 293 297 299 301 306 312 318 319 318 315 314 310 303 299 298 300 301 302 303 298 289 286 290 291 293 297 302 305 304 304 306 308 312 318 324 331
227 227 227 227 229 229 227 226 227 228 227 226 226 231 236 239 241 243 246 249 251 254 254 250 251 256 260 263 267 265 261 261 265 269 274 278 279 280 279 280 283 286 286 287 288 284 276 274 280 287 293 295 296 300 306 310 310 309 310 309 306 303 302 300 298 297 298 303 302 293 287 287 287 288 291 294 296 297 298 300 301 304 307 311 320
230 231 230 229 229 230 231 231 233 234 233 230 230 232 235 238 240 242 245 248 251 254 256 256 254 255 258 261 263 263 261 261 264 268 271 273 276 277 276 276 278 280 281 282 282 282 280 279 282 287 291 293 292 293 297 300 299 297 299 301 302 305 309 310 308 302 299 299 300 296 291 287 286 287 290 291 291 293 295 297 298 299 300 301 307
232 232 233 232 231 231 232 234 236 238 237 234 233 233 235 237 239 242 244 246 250 253 255 257 258 257 258 258 259 260 261 262 264 267 268 270 270 270 270 272 272 272 273 274 276 277 279 279 282 283 284 286 286 287 290 292 291 290 291 293 297 303 308 312 313 309 302 299 298 295 291 287 288 290 293 294 293 293 294 295 297 298 297 295 297
233 232 232 234 233 232 233 234 236 237 237 237 236 236 237 237 238 241 243 245 248 252 254 256 257 258 260 260 259 260 260 263 266 266 267 269 270 270 271 271 270 269 268 269 270 270 271 272 274 275 276 277 278 280 282 283 284 287 289 290 294 299 303 307 309 307 303 300 295 289 288 289 291 295 296 296 297 296 295 293 295 298 298 294 291
238 237 235 234 234 234 235 235 235 236 236 238 239 240 241 241 241 241 243 245 247 249 253 255 256 258 260 261 261 261 262 263 266 266 267 269 271 272 273 274 272 270 267 266 266 264 264 264 266 268 268 269 272 275 276 279 282 282 284 288 292 297 301 302 303 303 303 302 293 289 293 296 296 298 299 301 304 302 298 297 298 300 298 292 286
246 245 241 238 236 236 236 236 236 236 237 239 241 242 244 245 245 244 244 246 247 248 250 252 255 257 259 260 261 262 262 262 263 264 266 268 271 272 273 273 272 270 267 264 263 263 261 259 262 264 262 264 271 275 275 278 281 280 282 286 288 292 294 291 290 295 299 301 295 292 298 303 303 302 303 306 308 306 304 304 303 300 297 290 283
246 247 246 242 238 237 236 237 238 237 238 240 242 243 245 246 247 246 246 247 248 248 249 250 253 256 258 260 261 261 262 262 262 264 265 266 269 271 272 273 273 271 269 265 262 262 261 259 259 261 261 263 270 275 276 278 281 282 283 283 283 284 283 276 273 283 292 296 293 292 298 305 305 303 303 306 308 309 309 309 306 301 297 292 283
244 248 249 247 243 239 236 236 238 239 241 243 243 244 246 248 248 247 247 247 248 249 251 252 253 255 256 258 259 260 261 261 262 263 264 265 266 267 269 272 274 275 273 269 266 263 262 261 259 261 264 266 268 274 279 281 280 281 282 282 282 279 274 272 276 283 288 289 287 289 295 301 302 298 298 304 308 310 311 312 310 305 299 293 283
239 242 245 246 247 245 241 238 237 238 241 244 246 247 248 249 250 250 248 248 248 250 253 255 256 257 257 258 258 259 261 261 261 261 261 262 264 266 268 271 273 276 276 275 273 268 263 260 258 260 265 267 268 274 280 281 278 279 281 281 282 280 276 278 280 283 284 283 284 286 288 294 296 292 293 301 306 307 308 311 311 309 302 293 283
248 245 247 248 249 248 248 248 246 243 242 243 246 248 249 250 251 250 250 248 248 249 253 256 258 259 260 260 259 260 262 262 263 263 262 263 264 266 268 271 273 275 276 276 276 275 272 267 263 263 266 268 270 274 279 279 278 281 283 281 280 280 280 280 280 279 279 280 281 278 274 285 291 286 287 298 302 300 301 304 305 305 301 292 282
281 269 264 261 259 254 251 253 255 255 252 250 250 250 252 253 251 249 249 248 247 248 250 253 256 258 261 261 261 261 263 265 266 266 266 265 265 266 267 270 272 273 273 275 275 276 277 276 274 272 272 273 274 275 277 278 278 282 284 280 278 276 275 278 279 278 279 279 279 274 265 277 286 281 283 293 296 294 295 298 299 301 297 289 279
316 303 293 283 276 269 261 256 258 260 259 257 257 256 256 256 251 247 246 248 248 249 250 252 253 256 258 260 261 262 263 265 267 269 269 267 265 265 265 267 268 269 271 274 275 275 275 275 275 276 277 278 278 276 276 276 276 280 278 274 276 275 270 270 273 275 276 276 278 276 264 268 279 280 281 288 288 287 292 297 299 299 295 287 276
330 319 309 302 295 289 280 271 267 267 265 264 266 265 262 261 259 252 248 248 249 250 251 253 254 255 257 259 260 260 262 264 266 268 269 267 265 264 264 263 263 265 268 273 274 275 276 275 275 275 276 278 278 277 277 276 275 275 271 270 275 273 264 259 262 268 274 275 276 274 259 262 276 280 278 280 280 281 288 295 297 296 294 286 274
342 337 323 310 307 305 300 291 284 279 277 276 277 275 271 270 269 264 256 251 250 251 253 255 256 257 259 260 259 259 259 262 264 265 267 266 264 263 263 262 261 263 268 272 274 275 277 277 278 279 279 280 280 279 279 277 275 271 267 269 272 268 260 257 258 260 266 275 277 271 253 258 271 274 271 270 272 278 283 287 290 292 292 286 274